EST,Max TemperatureF,Mean TemperatureF,Min TemperatureF,Max Dew PointF,MeanDew PointF,Min DewpointF,Max Humidity, Mean Humidity, Min Humidity, Max Sea Level PressureIn, Mean Sea Level PressureIn, Min Sea Level PressureIn, Max VisibilityMiles, Mean VisibilityMiles, Min VisibilityMiles, Max Wind SpeedMPH, Mean Wind SpeedMPH, Max Gust SpeedMPH,PrecipitationIn, CloudCover, Events, WindDirDegrees
2014-1-1,53,48,42,46,42,39,93,82,71,30.38,30.29,30.15,10,9,4,9,4,12,0.17,8,Rain,34
2014-1-2,60,54,47,57,50,37,93,82,71,30.13,29.88,29.69,10,5,3,23,7,35,0.78,8,Rain,265
2014-1-3,47,38,29,33,17,11,71,50,28,30.45,30.23,29.82,10,10,10,29,14,39,0.00,1,,350
2014-1-4,51,40,28,38,27,15,76,63,49,30.45,30.36,30.20,10,10,10,15,10,20,0.00,6,,27
2014-1-5,71,57,43,59,48,37,93,76,59,30.18,30.05,29.88,10,10,6,7,4,,0.00,6,,1
2014-1-6,65,46,27,61,39,3,93,60,26,30.29,29.94,29.79,10,9,2,26,17,35,0.01,6,Rain,257
2014-1-7,33,25,17,12,3,0,55,40,24,30.57,30.47,30.31,10,10,10,21,8,29,0.00,3,,327
2014-1-8,50,36,22,24,17,10,77,53,29,30.63,30.54,30.50,10,10,10,12,5,16,0.00,2,,51
2014-1-9,64,49,34,50,38,25,83,61,39,30.51,30.45,30.37,10,10,10,15,8,21,T,5,,40
2014-1-10,75,65,54,66,59,50,97,83,68,30.34,30.21,30.08,10,10,6,21,9,26,0.11,6,Rain,138
2014-1-11,72,67,61,68,63,54,93,89,84,30.06,29.88,29.76,10,8,1,29,15,39,0.41,8,Rain,218
2014-1-12,65,53,41,52,38,29,76,52,27,30.23,30.09,29.84,10,10,10,20,6,28,0.00,1,,291
2014-1-13,68,52,36,51,42,34,92,66,40,30.22,30.13,29.95,10,10,9,13,2,15,T,5,Rain,157
2014-1-14,66,55,44,59,52,42,97,75,52,30.02,29.91,29.84,10,9,3,17,6,22,0.60,6,Fog-Rain,240
2014-1-15,64,51,37,45,38,32,93,63,32,30.01,29.96,29.88,10,6,0,15,4,22,0.00,5,Fog,251
2014-1-16,52,44,36,34,27,22,64,50,35,30.11,30.02,29.93,10,10,10,15,8,22,T,3,Rain,290
2014-1-17,64,48,31,46,34,23,75,57,39,30.13,30.03,29.94,10,10,10,21,9,26,0.00,3,Thunderstorm,222
2014-1-18,53,43,33,22,17,13,52,39,26,30.16,30.09,29.97,10,10,10,22,11,30,0.00,0,,274
2014-1-19,62,46,30,33,29,23,72,52,32,30.11,30.06,29.99,10,10,10,18,8,30,0.00,2,,245
2014-1-20,70,55,40,40,29,19,76,46,15,30.06,29.99,29.92,10,10,10,18,9,25,0.00,0,,242
2014-1-21,66,54,42,50,35,21,76,52,28,29.90,29.75,29.57,10,10,10,32,12,43,T,1,Rain,247
2014-1-22,45,37,29,25,19,14,66,49,31,30.17,30.02,29.84,10,10,10,16,8,21,0.00,0,,289
2014-1-23,47,38,29,19,11,8,56,39,22,30.37,30.29,30.17,10,10,10,13,6,16,0.00,5,,284
2014-1-24,37,28,19,14,5,-5,57,37,17,30.61,30.48,30.36,10,10,10,22,10,28,0.00,2,,346
2014-1-25,57,37,17,38,22,11,84,54,24,30.33,30.04,29.83,10,10,10,24,9,33,0.00,2,,249
2014-1-26,58,45,32,35,29,23,76,52,28,30.06,30.00,29.95,10,10,10,15,7,20,0.00,6,,237
2014-1-27,70,56,42,50,43,35,76,58,40,29.99,29.94,29.86,10,10,9,20,7,24,T,5,,233
2014-1-28,56,44,31,51,31,17,89,65,40,30.22,30.12,29.99,10,8,2,21,11,26,0.50,8,Rain,28
2014-1-29,32,30,27,29,25,21,85,80,75,30.38,30.24,30.12,10,10,3,20,10,24,0.09,8,Rain-Snow,11
2014-1-30,34,31,27,26,22,18,81,72,63,30.38,30.30,30.22,10,10,10,14,8,18,T,8,Rain,23
2014-1-31,61,47,33,41,33,25,93,65,36,30.28,30.21,30.17,10,10,8,10,2,20,0.00,5,,20